| time (UTC) | temp C | wind direction | speed KPH | gust KPH | rain 1hr cm | rain 24hr cm | rain mn cm | humidity % | barometer mb |
| 20260504024546 | 10 | 0 | 0.0 | 0.0 | 0.00 | 0.00 | 0.00 | 75 | 1018.4 |
| 20260504023044 | 10 | 0 | 0.0 | 0.0 | 0.00 | 0.00 | 0.00 | 74 | 1018.3 |
| 20260504021544 | 11 | 0 | 0.0 | 0.0 | 0.00 | 0.00 | 0.00 | 72 | 1018.3 |
| 20260504020047 | 11 | 0 | 0.0 | 0.0 | 0.00 | 0.00 | 0.00 | 71 | 1018.2 |
| 20260504014548 | 12 | 0 | 0.0 | 0.0 | 0.00 | 0.00 | 0.00 | 69 | 1018.0 |
| 20260504013050 | 12 | 0 | 0.0 | 0.0 | 0.00 | 0.00 | 0.00 | 67 | 1017.8 |
| 20260504011548 | 13 | 0 | 0.0 | 0.0 | 0.00 | 0.00 | 0.00 | 64 | 1017.7 |
| 20260504010055 | 14 | 0 | 0.0 | 0.0 | 0.00 | 0.00 | 0.00 | 62 | 1017.7 |
| 20260504004547 | 15 | 0 | 0.0 | 0.0 | 0.00 | 0.00 | 0.00 | 60 | 1017.5 |
| 20260504003046 | 15 | 0 | 0.0 | 0.0 | 0.00 | 0.00 | 0.00 | 58 | 1017.4 |
| 20260504001606 | 16 | 0 | 0.0 | 0.0 | 0.00 | 0.00 | 0.00 | 55 | 1017.1 |
| 20260504000048 | 17 | 0 | 0.0 | 0.0 | 0.00 | 0.00 | 0.00 | 53 | 1016.9 |
| 20260503234545 | 18 | 0 | 0.0 | 0.0 | 0.00 | 0.00 | 0.00 | 50 | 1017.0 |
| 20260503233044 | 18 | 0 | 0.0 | 4.8 | 0.00 | 0.00 | 0.00 | 47 | 1017.1 |
| 20260503231547 | 20 | 0 | 0.0 | 3.2 | 0.00 | 0.00 | 0.00 | 44 | 1017.0 |
| 20260503230048 | 20 | 59 | 0.0 | 8.0 | 0.00 | 0.00 | 0.00 | 40 | 1016.8 |
| 20260503224546 | 20 | 0 | 0.0 | 4.8 | 0.00 | 0.00 | 0.00 | 38 | 1016.9 |
| 20260503223046 | 20 | 139 | 0.0 | 12.9 | 0.00 | 0.00 | 0.00 | 40 | 1017.0 |
| 20260503221549 | 20 | 0 | 0.0 | 8.0 | 0.00 | 0.00 | 0.00 | 38 | 1017.0 |
| 20260503220104 | 21 | 0 | 4.8 | 17.7 | 0.00 | 0.00 | 0.00 | 38 | 1017.0 |
| 20260503214547 | 21 | 0 | 0.0 | 8.0 | 0.00 | 0.00 | 0.00 | 39 | 1017.1 |
| 20260503213049 | 21 | 0 | 1.6 | 14.5 | 0.00 | 0.00 | 0.00 | 38 | 1017.2 |
| 20260503211601 | 21 | 0 | 0.0 | 9.7 | 0.00 | 0.00 | 0.00 | 38 | 1017.3 |
| 20260503210055 | 21 | 42 | 1.6 | 14.5 | 0.00 | 0.00 | 0.00 | 37 | 1017.4 |
| 20260503204551 | 21 | 22 | 1.6 | 14.5 | 0.00 | 0.00 | 0.00 | 38 | 1017.5 |
| 20260503203050 | 21 | 226 | 3.2 | 12.9 | 0.00 | 0.00 | 0.00 | 37 | 1017.8 |
| 20260503201551 | 21 | 0 | 0.0 | 17.7 | 0.00 | 0.00 | 0.00 | 36 | 1018.2 |
| 20260503200046 | 21 | 237 | 3.2 | 17.7 | 0.00 | 0.00 | 0.00 | 36 | 1018.3 |
| 20260503194547 | 20 | 292 | 6.4 | 22.5 | 0.00 | 0.00 | 0.00 | 38 | 1018.6 |
| 20260503193049 | 20 | 225 | 3.2 | 20.9 | 0.00 | 0.00 | 0.00 | 36 | 1018.7 |
| 20260503191548 | 20 | 340 | 1.6 | 17.7 | 0.00 | 0.00 | 0.00 | 34 | 1018.8 |
| 20260503190052 | 20 | 0 | 4.8 | 14.5 | 0.00 | 0.00 | 0.00 | 35 | 1019.1 |
| 20260503184547 | 20 | 137 | 4.8 | 19.3 | 0.00 | 0.00 | 0.00 | 36 | 1019.3 |
| 20260503183046 | 20 | 205 | 4.8 | 16.1 | 0.00 | 0.00 | 0.00 | 38 | 1019.4 |
| 20260503181617 | 19 | 218 | 3.2 | 16.1 | 0.00 | 0.00 | 0.00 | 37 | 1019.4 |
| 20260503180045 | 19 | 0 | 3.2 | 24.1 | 0.00 | 0.00 | 0.00 | 38 | 1019.7 |
| 20260503174548 | 18 | 0 | 4.8 | 19.3 | 0.00 | 0.00 | 0.00 | 38 | 1019.6 |
| 20260503173054 | 18 | 271 | 4.8 | 16.1 | 0.00 | 0.00 | 0.00 | 40 | 1019.8 |
| 20260503171548 | 18 | 247 | 0.0 | 6.4 | 0.00 | 0.00 | 0.00 | 40 | 1020.2 |
| 20260503100104 | 2 | 0 | 0.0 | 1.6 | 0.00 | 0.00 | 0.00 | 88 | 1019.6 |
| 20260503081550 | 2 | 0 | 0.0 | 0.0 | 0.00 | 0.00 | 0.00 | 86 | 1018.8 |
| 20260503071554 | 3 | 0 | 0.0 | 0.0 | 0.00 | 0.00 | 0.00 | 85 | 1018.2 |
| 20260503060111 | 5 | 0 | 0.0 | 0.0 | 0.00 | 0.00 | 0.00 | 83 | 1017.9 |
| 20260503054556 | 5 | 0 | 0.0 | 1.6 | 0.00 | 0.00 | 0.00 | 82 | 1018.1 |
| 20260503053050 | 5 | 0 | 0.0 | 0.0 | 0.00 | 0.00 | 0.00 | 81 | 1018.0 |
| 20260503051551 | 5 | 0 | 0.0 | 0.0 | 0.00 | 0.00 | 0.00 | 81 | 1018.1 |
| 20260503050049 | 5 | 0 | 0.0 | 0.0 | 0.00 | 0.00 | 0.00 | 78 | 1018.0 |
| 20260503044618 | 6 | 0 | 0.0 | 0.0 | 0.00 | 0.00 | 0.00 | 78 | 1018.0 |
| 20260503043050 | 6 | 0 | 0.0 | 0.0 | 0.00 | 0.00 | 0.00 | 76 | 1017.9 |
| 20260503041555 | 6 | 0 | 0.0 | 0.0 | 0.00 | 0.00 | 0.00 | 75 | 1017.9 |
| 20260503040105 | 7 | 0 | 0.0 | 0.0 | 0.00 | 0.00 | 0.00 | 74 | 1017.8 |
| 20260503034556 | 7 | 0 | 0.0 | 0.0 | 0.00 | 0.00 | 0.00 | 74 | 1017.6 |
| 20260503033049 | 8 | 0 | 0.0 | 0.0 | 0.00 | 0.00 | 0.00 | 71 | 1017.6 |
| 20260503031549 | 8 | 0 | 0.0 | 0.0 | 0.00 | 0.00 | 0.00 | 69 | 1017.4 |
| 20260503030045 | 8 | 0 | 0.0 | 0.0 | 0.00 | 0.00 | 0.00 | 68 | 1017.2 |